Hourly Data Report for October 18, 2016

All times are specified in Local Standard Time (LST). Add 1 hour to adjust for Daylight Saving Time where and when it is observed.

KAMLOOPS A
BRITISH COLUMBIA

50°42'09.000" N
120°26'55.000" W
345.30 m
1163781
71887
YKA

Download Data

Hourly Data (October 2016)
Hourly Data Report for October 18, 2016
Temp Definition
°C
Dew Point Temp Definition
°C
Rel Hum Definition
%
Wind Dir Definition
10's deg

Wind Spd Definition
km/h
Visibility Definition
km
Stn Press Definition
kPa
Hmdx Definition


Wind Chill Definition


Weather Definition


TIME
00:00 Legend Double Dagger 8.2 6.3 88 3 4 64.4 96.76     LegendNANA
01:00 Legend Double Dagger 7.2 6.2 93 32 5 64.4 96.83     Mostly Cloudy
02:00 Legend Double Dagger 7.2 6.3 94 22 4 64.4 96.87     LegendNANA
03:00 Legend Double Dagger 6.9 5.7 92 22 4 64.4 96.89     LegendNANA
04:00 Legend Double Dagger 5.4 4.2 92 36 2 64.4 96.93     Mainly Clear
05:00 Legend Double Dagger 5.6 4.6 93 0 1 64.4 97.00     LegendNANA
06:00 Legend Double Dagger 5.0 3.8 92 36 2 64.4 97.05     LegendNANA
07:00 Legend Double Dagger 3.9 3.0 94 28 3 64.4 97.12     Mainly Clear
08:00 Legend Double Dagger 5.8 4.3 90 8 4 64.4 97.20     LegendNANA
09:00 Legend Double Dagger 8.6 4.8 77 22 3 64.4 97.25     LegendNANA
10:00 Legend Double Dagger 10.0 5.0 71 17 4 64.4 97.28     Mostly Cloudy
11:00 Legend Double Dagger 11.0 5.2 67 24 4 64.4 97.30     LegendNANA
12:00 Legend Double Dagger 11.4 4.9 64 28 7 64.4 97.31     LegendNANA
13:00 Legend Double Dagger 13.0 5.2 59 24 4 64.4 97.30     Mostly Cloudy
14:00 Legend Double Dagger 12.9 4.4 56 26 10 64.4 97.31     LegendNANA
15:00 Legend Double Dagger 12.8 5.5 61 36 3 64.4 97.33     LegendNANA
16:00 Legend Double Dagger 12.8 5.5 61 30 13 64.4 97.38     Mostly Cloudy
17:00 Legend Double Dagger 10.9 5.3 68 6 4 64.4 97.46     LegendNANA
18:00 Legend Double Dagger 10.1 5.5 73 10 7 64.4 97.56     LegendNANA
19:00 Legend Double Dagger 9.6 5.0 73 10 11 64.4 97.64     Mainly Clear
20:00 Legend Double Dagger 9.0 5.2 77 10 10 64.4 97.72     LegendNANA
21:00 Legend Double Dagger 6.5 4.2 85 28 4 64.4 97.82     LegendNANA
22:00 Legend Double Dagger 7.5 4.6 82 23 3 64.4 97.92     Mostly Cloudy
23:00 Legend Double Dagger 4.7 2.9 88 26 5 64.4 97.99     LegendNANA

Notes on Data Quality.

Legend

  • E = Estimated
  • M = Missing
  • NA = Not Available
  • ‡ = Partner data that is not subject to review by the National Climate Archives
Date modified: